Weather History for KULM - January, 2013

Change the Weather History Date:

Thursday, January 24, 2013

  Actual Average Record
Temperature  
Mean Temperature 6 °F -  
Max Temperature 15 °F 25 °F 65 °F (1981)
Min Temperature -4 °F 6 °F -22 °F (1952)
Degree Days  
Heating Degree Days 60    
Moisture  
Dew Point -8 °F    
Average Humidity 54    
Maximum Humidity 67    
Minimum Humidity 38    
Precipitation  
Precipitation 0.00 in - - ()
Sea Level Pressure  
Sea Level Pressure 30.43 in    
Wind  
Wind Speed 8 mph (SE)    
Max Wind Speed 22 mph    
Max Gust Speed 26 mph    
Visibility 10 miles    
Events Snow    
Averages and records for this station are not official NWS values.
T = Trace of Precipitation, MM = Missing Value Source: NWS Daily Summary

Daily Weather History Graph

Daily Weather History Graph

Search for Another Location

Airport or City:

Trip Planner

Search our weather history database for the weather conditions in past years. The results will help you decide how hot, cold, wet, or windy it might be!

Date:

Astronomy

Jan. 24, 2013 Rise Set
Actual Time 7:43 AM CST 5:16 PM CST
Civil Twilight 7:12 AM CST 5:48 PM CST
Nautical Twilight 6:37 AM CST 6:23 PM CST
Astronomical Twilight 6:02 AM CST 6:58 PM CST
Moon 3:18 PM CST 5:43 AM CST
Length of Visible Light 10h 36m
Length of Day
9h 33m
Waxing Gibbous, 94% of the Moon is Illuminated
Jan 24
Waxing Gibbous
Jan 26
Full
Feb 3
Last Quarter
Feb 10
New
Feb 17
First Quarter

Hourly Weather History & Observations

Time (CST) Temp. Windchill Dew Point Humidity Pressure Visibility Wind Dir Wind Speed Gust Speed Precip Events Conditions
12:13 AM -4.0 °F -16.3 °F -14.8 °F 60% 30.57 in 10.0 mi North 5.8 mph - N/A   Clear
12:33 AM -4.0 °F -12.4 °F -14.8 °F 60% 30.58 in 10.0 mi North 3.5 mph - N/A   Clear
12:52 AM -4.0 °F -16.3 °F -13.0 °F 65% 30.58 in 10.0 mi North 5.8 mph - N/A   Clear
1:13 AM -4.0 °F -12.4 °F -13.0 °F 65% 30.59 in 10.0 mi North 3.5 mph - N/A   Clear
1:33 AM -4.0 °F -12.4 °F -13.0 °F 65% 30.59 in 10.0 mi North 3.5 mph - N/A   Clear
1:52 AM -4.0 °F - -13.0 °F 65% 30.59 in 10.0 mi Calm Calm - N/A   Clear
2:13 AM -2.2 °F -12.5 °F -13.0 °F 60% 30.59 in 10.0 mi NNE 4.6 mph - N/A   Clear
2:32 AM -2.2 °F -10.4 °F -13.0 °F 60% 30.61 in 10.0 mi NNE 3.5 mph - N/A   Clear
2:53 AM -2.2 °F -14.2 °F -14.8 °F 55% 30.61 in 10.0 mi NE 5.8 mph - N/A   Clear
3:13 AM -2.2 °F -14.2 °F -14.8 °F 55% 30.61 in 10.0 mi NE 5.8 mph - N/A   Clear
3:32 AM -2.2 °F -10.4 °F -14.8 °F 55% 30.62 in 10.0 mi NE 3.5 mph - N/A   Clear
3:53 AM -2.2 °F -10.4 °F -14.8 °F 55% 30.62 in 10.0 mi NE 3.5 mph - N/A   Clear
4:13 AM -2.2 °F -10.4 °F -14.8 °F 55% 30.60 in 10.0 mi ENE 3.5 mph - N/A   Clear
4:32 AM -2.2 °F -14.2 °F -14.8 °F 55% 30.58 in 10.0 mi East 5.8 mph - N/A   Clear
4:53 AM -2.2 °F -14.2 °F -14.8 °F 55% 30.59 in 10.0 mi East 5.8 mph - N/A   Clear
5:13 AM -2.2 °F -10.4 °F -14.8 °F 55% 30.60 in 10.0 mi East 3.5 mph - N/A   Clear
5:32 AM -2.2 °F -10.4 °F -13.0 °F 60% 30.60 in 10.0 mi East 3.5 mph - N/A   Clear
5:53 AM -2.2 °F -12.5 °F -13.0 °F 60% 30.58 in 10.0 mi East 4.6 mph - N/A   Clear
6:13 AM -2.2 °F -14.2 °F -13.0 °F 60% 30.59 in 10.0 mi East 5.8 mph - N/A   Clear
6:32 AM -2.2 °F -14.2 °F -13.0 °F 60% 30.61 in 10.0 mi East 5.8 mph - N/A   Clear
6:53 AM -2.2 °F -10.4 °F -13.0 °F 60% 30.61 in 10.0 mi East 3.5 mph - N/A   Clear
7:13 AM -0.4 °F -8.3 °F -11.2 °F 60% 30.62 in 10.0 mi ESE 3.5 mph - N/A   Clear
7:33 AM -0.4 °F -8.3 °F -11.2 °F 60% 30.61 in 10.0 mi ESE 3.5 mph - N/A   Clear
7:53 AM -0.4 °F -10.4 °F -11.2 °F 60% 30.60 in 10.0 mi SE 4.6 mph - N/A   Clear
8:13 AM -0.4 °F -10.4 °F -11.2 °F 60% 30.58 in 10.0 mi SE 4.6 mph - N/A   Clear
8:33 AM -0.4 °F -12.0 °F -11.2 °F 60% 30.58 in 10.0 mi SE 5.8 mph - N/A   Clear
8:53 AM -0.4 °F -13.4 °F -11.2 °F 60% 30.57 in 10.0 mi ESE 6.9 mph - N/A   Clear
9:12 AM -0.4 °F -14.7 °F -11.2 °F 60% 30.57 in 10.0 mi ESE 8.1 mph - N/A   Clear
9:33 AM -0.4 °F -13.4 °F -11.2 °F 60% 30.56 in 10.0 mi ESE 6.9 mph - N/A   Clear
9:53 AM 1.4 °F -12.5 °F -9.4 °F 61% 30.54 in 10.0 mi ESE 8.1 mph - N/A   Clear
10:12 AM 1.4 °F -13.5 °F -9.4 °F 61% 30.55 in 10.0 mi SE 9.2 mph - N/A   Clear
10:33 AM 1.4 °F -9.9 °F -9.4 °F 61% 30.55 in 10.0 mi SE 5.8 mph - N/A   Clear
10:53 AM 3.2 °F -12.2 °F -7.6 °F 61% 30.54 in 10.0 mi SE 10.4 mph - N/A   Clear
11:12 AM 3.2 °F -12.2 °F -7.6 °F 61% 30.53 in 10.0 mi SE 10.4 mph - N/A   Clear
11:33 AM 3.2 °F -13.1 °F -7.6 °F 61% 30.53 in 10.0 mi SE 11.5 mph 16.1 mph N/A   Clear
11:53 AM 5.0 °F -11.6 °F -5.8 °F 61% 30.52 in 10.0 mi SSE 12.7 mph - N/A   Clear
12:12 PM 6.8 °F -9.3 °F -5.8 °F 56% 30.49 in 10.0 mi SE 12.7 mph - N/A   Clear
12:33 PM 6.8 °F -10.7 °F -5.8 °F 56% 30.46 in 10.0 mi SE 15.0 mph - N/A   Clear
12:53 PM 8.6 °F -6.3 °F -4.0 °F 57% 30.45 in 10.0 mi SE 11.5 mph - N/A   Clear
1:12 PM 8.6 °F -7.7 °F -4.0 °F 57% 30.43 in 10.0 mi SE 13.8 mph 18.4 mph N/A   Clear
1:33 PM 10.4 °F -4.1 °F -2.2 °F 57% 30.43 in 10.0 mi SSE 11.5 mph - N/A   Clear
1:53 PM 10.4 °F -4.8 °F -4.0 °F 52% 30.42 in 10.0 mi SSE 12.7 mph - N/A   Clear
2:12 PM 10.4 °F -4.8 °F -2.2 °F 57% 30.40 in 10.0 mi SSE 12.7 mph 17.3 mph N/A   Clear
2:33 PM 12.2 °F -1.8 °F -4.0 °F 48% 30.39 in 10.0 mi SSE 11.5 mph - N/A   Clear
2:53 PM 12.2 °F -1.8 °F -2.2 °F 53% 30.36 in 10.0 mi SSE 11.5 mph - N/A   Clear
3:12 PM 12.2 °F -4.3 °F -5.8 °F 45% 30.35 in 10.0 mi SSE 16.1 mph - N/A   Clear
3:33 PM 14.0 °F -1.4 °F -5.8 °F 41% 30.32 in 10.0 mi SSE 15.0 mph 21.9 mph N/A   Clear
3:53 PM 12.2 °F -4.3 °F -5.8 °F 45% 30.31 in 10.0 mi SSE 16.1 mph - N/A   Clear
4:12 PM 12.2 °F -3.1 °F -5.8 °F 45% 30.30 in 10.0 mi SSE 13.8 mph 19.6 mph N/A   Clear
4:33 PM 12.2 °F -5.3 °F -7.6 °F 41% 30.29 in 10.0 mi SSE 18.4 mph 23.0 mph N/A   Clear
4:53 PM 12.2 °F -4.3 °F -5.8 °F 45% 30.28 in 10.0 mi SSE 16.1 mph 19.6 mph N/A   Clear
5:12 PM 12.2 °F -1.0 °F -5.8 °F 45% 30.29 in 10.0 mi SSE 10.4 mph 19.6 mph N/A   Clear
5:33 PM 12.2 °F -3.7 °F -5.8 °F 45% 30.27 in 10.0 mi SE 15.0 mph - N/A   Clear
5:53 PM 12.2 °F -2.5 °F -5.8 °F 45% 30.26 in 10.0 mi SE 12.7 mph - N/A   Scattered Clouds
6:12 PM 14.0 °F -0.2 °F -7.6 °F 38% 30.26 in 10.0 mi SE 12.7 mph 17.3 mph N/A   Mostly Cloudy
6:33 PM 14.0 °F -0.2 °F -5.8 °F 41% 30.25 in 10.0 mi SSE 12.7 mph - N/A   Overcast
6:53 PM 14.0 °F -0.2 °F -5.8 °F 41% 30.25 in 10.0 mi SSE 12.7 mph 17.3 mph N/A   Overcast
7:13 PM 14.0 °F -2.0 °F -5.8 °F 41% 30.21 in 10.0 mi SSE 16.1 mph 19.6 mph N/A   Overcast
7:33 PM 14.0 °F -0.8 °F -4.0 °F 45% 30.21 in 10.0 mi SSE 13.8 mph 19.6 mph N/A   Overcast
7:53 PM 14.0 °F -2.5 °F -4.0 °F 45% 30.17 in 10.0 mi SSE 17.3 mph 21.9 mph N/A   Overcast
8:13 PM 14.0 °F -0.8 °F -2.2 °F 49% 30.18 in 10.0 mi SSE 13.8 mph 21.9 mph N/A   Overcast
8:33 PM 15.8 °F -0.2 °F -2.2 °F 45% 30.17 in 10.0 mi SSE 17.3 mph 25.3 mph N/A   Overcast
8:52 PM 15.8 °F -1.5 °F -2.2 °F 45% 30.14 in 10.0 mi South 20.7 mph 24.2 mph N/A   Overcast
9:13 PM 15.8 °F -1.9 °F -2.2 °F 45% 30.14 in 10.0 mi South 21.9 mph - N/A   Overcast
9:33 PM 15.8 °F -1.5 °F -2.2 °F 45% 30.16 in 10.0 mi South 20.7 mph 26.5 mph N/A   Overcast
9:52 PM 15.8 °F 0.3 °F -2.2 °F 45% 30.18 in 10.0 mi South 16.1 mph 20.7 mph N/A   Overcast
10:13 PM 15.8 °F 2.1 °F -2.2 °F 45% 30.17 in 10.0 mi SSW 12.7 mph 18.4 mph N/A   Overcast
10:33 PM 15.8 °F 2.1 °F -0.4 °F 49% 30.17 in 10.0 mi SSW 12.7 mph 18.4 mph N/A   Scattered Clouds
10:52 PM 15.8 °F 2.7 °F -0.4 °F 49% 30.16 in 10.0 mi South 11.5 mph - N/A   Clear
11:13 PM 15.8 °F 2.1 °F 3.2 °F 58% 30.14 in 5.0 mi South 12.7 mph 18.4 mph N/A Snow Light Snow
11:33 PM 14.0 °F -0.2 °F 5.0 °F 67% 30.14 in 10.0 mi South 12.7 mph 21.9 mph N/A   Mostly Cloudy
11:52 PM 15.8 °F 2.1 °F 5.0 °F 62% 30.13 in 10.0 mi South 12.7 mph 17.3 mph N/A   Mostly Cloudy